LOT2PG LEMD-LFPG

Flight info

Callsign LOT2PG
Flight time N/A
Altitude 36000
Route RBO L184 BAN N10 PPN M299 DONOS R299 BTZ R10 ENSAC B19 AMB A34 KOVAK
Aircraft B77W/H-VGDW/C

Departure

Time 2026-05-01 15:32
Airport Adolfo Suárez Madrid–Barajas Airport (LEMD)

Arrival

Time N/A
Airport Charles de Gaulle International Airport (LFPG)
Time Latitude Longitude Altitude Speed Heading
2026-05-01 15:16 40.49392 -3.56348 1985 ft 0 kts 269°
2026-05-01 15:25 40.49392 -3.56353 1987 ft 5 kts 269°
2026-05-01 15:25 40.49401 -3.56441 1989 ft 11 kts 305°
2026-05-01 15:25 40.49472 -3.56460 1985 ft 11 kts
2026-05-01 15:25 40.49540 -3.56434 1988 ft 9 kts 49°
2026-05-01 15:26 40.49553 -3.56357 1987 ft 9 kts 87°
2026-05-01 15:26 40.49554 -3.56280 1987 ft 8 kts 90°
2026-05-01 15:26 40.49554 -3.56204 1985 ft 8 kts 90°
2026-05-01 15:26 40.49555 -3.56127 1986 ft 8 kts 89°
2026-05-01 15:27 40.49555 -3.56051 1988 ft 8 kts 90°
2026-05-01 15:27 40.49555 -3.56029 1988 ft 0 kts 90°
2026-05-01 15:29 40.49555 -3.56000 1987 ft 7 kts 92°
2026-05-01 15:29 40.49537 -3.55864 1987 ft 8 kts 112°
2026-05-01 15:30 40.49467 -3.55758 1987 ft 8 kts 142°
2026-05-01 15:31 40.49454 -3.55745 1988 ft 0 kts 142°
2026-05-01 15:31 40.48965 -3.55251 1988 ft 120 kts 142°
2026-05-01 15:32 40.47093 -3.53377 2698 ft 184 kts 143°
2026-05-01 15:32 40.44935 -3.51204 4240 ft 193 kts 144°
2026-05-01 15:33 40.42219 -3.46777 5918 ft 233 kts 120°
2026-05-01 15:34 40.39981 -3.40655 7927 ft 261 kts 117°